Location: Moscow
(55.7500°N, 37.5830°E)
Time: 21:08:32
(UTC+03:00)

ISS - Pass Details

Date: 22 May 2021
Orbit: 417 x 422 km, 51.6° (Epoch: 16 June)

Event Time Altitude Azimuth Distance (km) Brightness Sun altitude
Rises 22:24:18 0° 267° (W) 2,367 0.4 -9.4°
Reaches altitude 10° 22:26:28 10° 259° (WSW) 1,504 -0.7 -9.6°
Maximum altitude 22:29:37 37° 190° (S) 673 -3.1 -9.8°
Enters shadow 22:32:28 12° 124° (ESE) 1,390 -1.6 -10.0°
